This demonstration page uses our WeatherBlox Daily Observations layout. Learn more.

38.88101, -77.10428

Hourly Observations for August 25, 2017

Temp ( °F °C ) Dew Point ( °F °C ) Humidity (%) Winds ( mph kmh ) Pressure ( in mb ) Visibility ( mi km ) Precip ( " mm )
12:02 am 00:02 Cloudy 74 23.3 62 16.7 67 67 E 6 9 30 1016 10 16.0934 0 0
12:52 am 00:52 Mostly Cloudy 72 22.2 62 16.7 71 71 NNW 9 15 30.01 1016 10 16.0934 0 0
1:52 am 01:52 Cloudy with Light Rain 71 21.7 62 16.7 73 73 NNW 8 13 30.03 1017 10 16.0934 0 0.0254
2:52 am 02:52 Cloudy with Light Rain 69 20.6 61 16.1 76 76 N 8 13 30.05 1018 10 16.0934 0 0.0254
3:52 am 03:52 Cloudy 67 19.4 63 17.2 87 87 NE 9 15 30.05 1018 10 16.0934 0.05 1.27
4:52 am 04:52 Cloudy 67 19.4 63 17.2 87 87 ENE 6 9 30.06 1018 10 16.0934 0 0
5:20 am 05:20 Partly Cloudy 66 18.9 62 16.7 87 87 VRB 3 6 30.06 1018 10 16.0934 0 0
5:52 am 05:52 Mostly Clear 66 18.9 61 16.1 84 84 Calm 30.07 1018 10 16.0934 0 0
6:52 am 06:52 Mostly Sunny 66 18.9 61 16.1 84 84 N 6 9 30.1 1019 10 16.0934 0 0
7:52 am 07:52 Mostly Sunny 68 20 63 17.2 84 84 N 7 11 30.11 1020 10 16.0934 0 0
8:52 am 08:52 Mostly Sunny 70 21.1 62 16.7 76 76 N 8 13 30.13 1020 10 16.0934 0 0
9:52 am 09:52 Mostly Sunny 72 22.2 62 16.7 71 71 N 7 11 30.14 1021 10 16.0934 0 0
10:52 am 10:52 Mostly Sunny 74 23.3 61 16.1 64 64 NW 5 7 30.14 1021 10 16.0934 0 0
11:52 am 11:52 Mostly Cloudy 76 24.4 61 16.1 60 60 VRB 3 6 30.14 1021 10 16.0934 0 0
12:52 pm 12:52 Mostly Cloudy 76 24.4 60 15.6 58 58 NW 8 13 30.14 1021 10 16.0934 0 0
1:52 pm 13:52 Mostly Cloudy 78 25.6 59 15 52 52 N 5 7 30.14 1021 10 16.0934 0 0
2:52 pm 14:52 Partly Cloudy 78 25.6 58 14.4 50 50 W 6 9 30.13 1020 10 16.0934 0 0
3:52 pm 15:52 Partly Cloudy 80 26.7 57 13.9 45 45 NNW 6 9 30.12 1020 10 16.0934 0 0
4:52 pm 16:52 Partly Cloudy 80 26.7 58 14.4 47 47 VRB 5 7 30.13 1020 10 16.0934 0 0
5:52 pm 17:52 Mostly Cloudy 78 25.6 57 13.9 48 48 NNW 5 7 30.14 1021 10 16.0934 0 0
6:52 pm 18:52 Mostly Cloudy 78 25.6 58 14.4 50 50 NW 8 13 30.14 1021 10 16.0934 0 0
7:52 pm 19:52 Mostly Cloudy 77 25 58 14.4 52 52 NNW 9 15 30.16 1021 10 16.0934 0 0
8:52 pm 20:52 Mostly Cloudy 75 23.9 59 15 58 58 NNE 10 17 30.18 1022 10 16.0934 0 0
9:52 pm 21:52 Partly Cloudy 74 23.3 62 16.7 67 67 NE 10 17 30.19 1022 10 16.0934 0 0
10:52 pm 22:52 Mostly Clear 73 22.8 62 16.7 69 69 NE 7 11 30.19 1022 10 16.0934 0 0
11:52 pm 23:52 Partly Cloudy 72 22.2 61 16.1 68 68 NNE 7 11 30.21 1023 10 16.0934 0 0

Powered by AerisWeather